Astoria, OR

2:02 AM PDT on September 24, 2017 (GMT -0700)
Astoria Regional

Weather History for KAST - September, 2013

Change the Weather History Date:

Wednesday, September 18, 2013

  Actual Average Record
Temperature  
Mean Temperature 60 °F 58 °F  
Max Temperature 67 °F 68 °F 82 °F (1991)
Min Temperature 53 °F 49 °F 38 °F (1965)
Degree Days  
Heating Degree Days 5 7  
Month to date heating degree days 46 103  
Since 1 July heating degree days 293 384  
Cooling Degree Days 0 0  
Month to date cooling degree days 3 0  
Year to date cooling degree days 9 7  
Growing Degree Days 10 (Base 50)    
Moisture  
Dew Point 54 °F    
Average Humidity 71    
Maximum Humidity 84    
Minimum Humidity 58    
Precipitation  
Precipitation 0.18 in 0.07 in 1.00 in (1921)
Month to date precipitation 0.88 1.11  
Year to date precipitation 37.23 39.21  
Snow  
Snow 0.00 in - - ()
Month to date snowfall 0.0  
Snow Depth 0.00 in    
Sea Level Pressure  
Sea Level Pressure 30.05 in    
Wind  
Wind Speed 7 mph (WSW)    
Max Wind Speed 12 mph    
Max Gust Speed 15 mph    
Visibility 9 miles    
Events Rain    
T = Trace of Precipitation, MM = Missing Value Source: NWS Daily Summary

Daily Weather History Graph

Daily Weather History Graph

Search for Another Location

Airport or City:

Trip Planner

Search our weather history database for the weather conditions in past years. The results will help you decide how hot, cold, wet, or windy it might be!

Date:

Astronomy

Sep. 18, 2013 Rise Set
Actual Time 6:57 AM PDT 7:20 PM PDT
Civil Twilight 6:27 AM PDT 7:50 PM PDT
Nautical Twilight 5:52 AM PDT 8:25 PM PDT
Astronomical Twilight 5:15 AM PDT 9:02 PM PDT
Moon 6:45 PM PDT (9/18) 6:06 AM PDT (9/18)
Length of Visible Light 13h 22m
Length of Day
12h 22m
Waxing Gibbous, 99% of the Moon is Illuminated
Sep 18
Waxing Gibbous
Sep 19
Full
Sep 26
Last Quarter
Oct 4
New
Oct 11
First Quarter

Hourly Weather History & Observations

Time (PDT) Temp. Dew Point Humidity Pressure Visibility Wind Dir Wind Speed Gust Speed Precip Events Conditions
12:26 AM 55.4 °F 53.6 °F 94% 30.00 in 10.0 mi Calm Calm - N/A   Mostly Cloudy
12:35 AM 55.4 °F 53.6 °F 94% 30.00 in 10.0 mi Calm Calm - N/A   Scattered Clouds
12:55 AM 57.0 °F 55.0 °F 93% 30.00 in 10.0 mi Calm Calm - 0.00 in Rain Light Rain
1:55 AM 57.0 °F 53.1 °F 87% 30.02 in 10.0 mi SW 5.8 mph - 0.00 in   Mostly Cloudy
2:55 AM 55.9 °F 53.1 °F 90% 30.02 in 8.0 mi Calm Calm - 0.00 in Rain Light Rain
3:03 AM 55.4 °F 53.6 °F 94% 30.03 in 2.5 mi South 3.5 mph - 0.05 in Rain Rain
3:19 AM 55.4 °F 53.6 °F 94% 30.02 in 3.0 mi Calm Calm - 0.15 in Rain Light Rain
3:55 AM 54.0 °F 52.0 °F 93% 30.03 in 10.0 mi South 3.5 mph - 0.15 in   Partly Cloudy
4:55 AM 54.0 °F 53.1 °F 97% 30.04 in 9.0 mi Calm Calm - 0.01 in Rain Light Rain
5:55 AM 53.1 °F 52.0 °F 96% 30.04 in 9.0 mi Calm Calm - 0.00 in   Clear
6:55 AM 54.0 °F 53.1 °F 97% 30.05 in 10.0 mi Calm Calm - 0.01 in Rain Light Rain
7:14 AM 53.6 °F 53.6 °F 100% 30.06 in 10.0 mi Calm Calm - 0.00 in   Mostly Cloudy
7:55 AM 55.9 °F 55.0 °F 97% 30.06 in 5.0 mi Calm Calm - 0.00 in Rain Light Rain
8:55 AM 59.0 °F 57.0 °F 93% 30.07 in 10.0 mi Variable 3.5 mph - 0.01 in   Clear
9:55 AM 62.1 °F 57.0 °F 84% 30.08 in 10.0 mi SW 5.8 mph - N/A   Clear
10:55 AM 63.0 °F 55.0 °F 75% 30.09 in 10.0 mi SW 3.5 mph - N/A   Mostly Cloudy
11:55 AM 64.0 °F 55.9 °F 75% 30.09 in 10.0 mi SSW 5.8 mph - N/A   Partly Cloudy
12:55 PM 64.9 °F 55.0 °F 70% 30.09 in 10.0 mi SSW 8.1 mph - N/A   Partly Cloudy
1:55 PM 66.0 °F 55.0 °F 68% 30.08 in 10.0 mi West 10.4 mph - N/A   Clear
2:55 PM 66.0 °F 54.0 °F 65% 30.07 in 10.0 mi West 10.4 mph - N/A   Partly Cloudy
3:55 PM 66.0 °F 53.1 °F 63% 30.06 in 10.0 mi WNW 6.9 mph - N/A   Clear
4:55 PM 66.0 °F 52.0 °F 60% 30.05 in 10.0 mi WNW 5.8 mph - N/A   Clear
5:55 PM 66.0 °F 52.0 °F 60% 30.05 in 10.0 mi NW 4.6 mph - N/A   Clear
6:55 PM 63.0 °F 54.0 °F 72% 30.04 in 10.0 mi NW 3.5 mph - N/A   Clear
7:55 PM 57.0 °F 53.1 °F 87% 30.05 in 10.0 mi West 3.5 mph - N/A   Clear
8:55 PM 55.9 °F 53.1 °F 90% 30.05 in 10.0 mi Calm Calm - N/A   Clear
9:55 PM 54.0 °F 52.0 °F 93% 30.04 in 10.0 mi East 3.5 mph - N/A   Clear
10:55 PM 55.0 °F 52.0 °F 89% 30.03 in 10.0 mi Calm Calm - N/A   Clear
11:55 PM 54.0 °F 51.1 °F 90% 30.01 in 10.0 mi Calm Calm - N/A   Clear